This is the latest recevied weather packets stored in our database for station/object K4KMJ. If no packets are shown the sender has not sent any weather packets the latest 10 day(s).
| Time | Temp. | Humidity | Pressure | Rain* | Wind** | Luminosity | Snow |
|---|---|---|---|---|---|---|---|
| 1777311652 | 26.67° C | 77% | 1019.3 hPa | 0 mm | - | 329 W/m² | - |
| 1777311350 | 26.67° C | 76% | 1019.1 hPa | 0 mm | - | 414 W/m² | - |
| 1777311047 | 27.22° C | 75% | 1018.9 hPa | 0 mm | - | 273 W/m² | - |
| 1777310744 | 27.22° C | 76% | 1019.1 hPa | 0 mm | - | 333 W/m² | - |
| 1777310442 | 27.22° C | 77% | 1018.9 hPa | 0 mm | - | 819 W/m² | - |
| 1777310139 | 26.67° C | 78% | 1018.9 hPa | 0 mm | - | 351 W/m² | - |
| 1777309836 | 26.11° C | 77% | 1019 hPa | 0 mm | - | 936 W/m² | - |
| 1777309534 | 26.11° C | 77% | 1019.1 hPa | 0 mm | - | 303 W/m² | - |
| 1777309231 | 26.67° C | 78% | 1019.2 hPa | 0 mm | - | 527 W/m² | - |
| 1777308930 | 26.11° C | 78% | 1019.2 hPa | 0 mm | - | 309 W/m² | - |
| 1777308625 | 26.11° C | 78% | 1019.2 hPa | 0 mm | - | 924 W/m² | - |
| 1777308321 | 26.11° C | 79% | 1019.2 hPa | 0 mm | - | 892 W/m² | - |
| 1777308016 | 26.67° C | 79% | 1019.3 hPa | 0 mm | - | 939 W/m² | - |
| 1777307714 | 26.11° C | 79% | 1019.4 hPa | 0 mm | - | 877 W/m² | - |
| 1777307410 | 26.11° C | 79% | 1019.3 hPa | 0 mm | - | 879 W/m² | - |
| 1777307108 | 26.11° C | 79% | 1019.2 hPa | 0 mm | - | 869 W/m² | - |
| 1777306804 | 26.11° C | 80% | 1019.2 hPa | 0 mm | - | 868 W/m² | - |
| 1777306496 | 25.56° C | 81% | 1019.5 hPa | 0 mm | - | 869 W/m² | - |
| 1777306192 | 26.67° C | 82% | 1019.3 hPa | 0 mm | - | 867 W/m² | - |
| 1777305887 | 26.11° C | 83% | 1019.3 hPa | 0 mm | - | 861 W/m² | - |
| 1777305583 | 25° C | 84% | 1019 hPa | 0 mm | - | 466 W/m² | - |
| 1777305279 | 25° C | 84% | 1019.2 hPa | 0 mm | - | 172 W/m² | - |
| 1777304973 | 25° C | 83% | 1019.1 hPa | 0 mm | - | 115 W/m² | - |
| 1777304669 | 25.56° C | 84% | 1018.9 hPa | 0 mm | - | 169 W/m² | - |
| 1777304367 | 25.56° C | 85% | 1019 hPa | 0 mm | - | 895 W/m² | - |
* Rain latest hour (hover to see other rain measurements)
** Current wind speed in m/s (hover to see current wind gust speed)